Regional Weather Roundup
Issued by NWS

Home | Current Version | Previous Version | Text Only | Print | Product List | Glossary Off
Versions: 1 2 3 4 5 6 7 8 9 10 11 12 13 14 15 16 17 18 19 20 21 22 23 24 25 26 27 28 29 30 31 32 33 34 35 36 37 38 39 40 41 42 43 44 45 46 47 48 49 50

000
ASUS45 KCYS 211510
RWRWY

WYOMING REGIONAL WEATHER ROUNDUP
NATIONAL WEATHER SERVICE CHEYENNE WY
800 AM MST WED FEB 21 2018

NOTE:  "FAIR" INDICATES FEW OR NO CLOUDS BELOW 12,000 FEET
WITH NO SIGNIFICANT WEATHER AND/OR OBSTRUCTIONS TO VISIBILITY.

WYZ001-211600-
YELLOWSTONE NATIONAL PARK

CITY           SKY/WX    TMP DP  RH WIND       PRES   REMARKS
LK YELLOWSTONE   N/A    -17 -21  82 CALM      29.97R
W YELLOWSTONE  NOT AVBL

$$
WYZ002>013-054>058-071-098>099-211600-
NORTHERN WYOMING

CITY           SKY/WX    TMP DP  RH WIND       PRES   REMARKS
JACKSON        LGT SNOW  -4  -9  79 N7        30.07R WCI -18
CODY           FAIR       1 -12  54 S7        30.09R WCI -12
GREYBULL       FAIR     -22 -25  85 CALM      30.23R
WORLAND        FAIR     -15 -19  82 S7        30.19R WCI -31
SHERIDAN       FAIR     -14 -20  74 NW7       30.14R WCI -30
BUFFALO        FAIR       3 -11  52 SW5       30.08R WCI  -6
GILLETTE       FAIR      -4 -12  68 S21       30.14S WCI -28
HULETT         FAIR       0  -9  65 MISG      30.17S
NEWCASTLE      FAIR     -11 -18  70 CALM      30.22R

$$
WYZ014>020-022>026-101>103-211600-
CENTRAL WYOMING

CITY           SKY/WX    TMP DP  RH WIND       PRES   REMARKS
BIG PINEY      FAIR     -16 -21  78 N3        30.09R
PINEDALE       FAIR     -17 -22  76 NW5       30.09R WCI -29
DUBOIS           N/A    N/A N/A N/A MISG        N/A
LANDER         FAIR     -12 -16  82 CALM      30.10R
RIVERTON       FAIR     -10 -16  74 CALM      30.11R
CASPER         FAIR      -5 -12  72 NW6       30.12R WCI -18
DOUGLAS        FAIR     -21 -28  70 CALM      30.17S

$$
WYZ021-027>030-104>119-211600-
SOUTHERN WYOMING

CITY           SKY/WX    TMP DP  RH WIND       PRES   REMARKS
EVANSTON       FAIR       0 -12  57 S3        30.02R
FORT BRIDGER   FAIR      -4 -11  71 CALM      30.08R
ROCK SPRINGS   FAIR      -5 -10  79 CALM      30.09R
DIXON          FAIR     -15 -21  74 E6        30.15R WCI -30
RAWLINS        FAIR      -5  -9  83 CALM      30.08R
SARATOGA       FAIR      -9 -15  77 W6        30.08S WCI -23
LARAMIE        FAIR      -8 -12  83 W9        30.05R WCI -25
CHEYENNE       FAIR       6   3  87 S3        30.13R
TORRINGTON     FAIR      -4  -8  83 CALM      30.25R
PINE BLUFFS    FAIR      -2  -6  84 MISG      30.20S

$$



USA.gov is the U.S. government's official web portal to all federal, state and local government web resources and services.